Vitoria, Spain

2:41 PM CET on December 16, 2017 (GMT +0100)
Foronda

Weather History for LEVT - October, 2013

Change the Weather History Date:

Friday, October 11, 2013

  Actual Average Record
Temperature  
Mean Temperature 48 °F -  
Max Temperature 55 °F 61 °F 82 °F (2011)
Min Temperature 42 °F 42 °F 28 °F (2016)
Degree Days  
Heating Degree Days 16    
Moisture  
Dew Point 44 °F    
Average Humidity 87    
Maximum Humidity 100    
Minimum Humidity 63    
Precipitation  
Precipitation 0.00 in - - ()
Sea Level Pressure  
Sea Level Pressure 30.05 in    
Wind  
Wind Speed 3 mph ()    
Max Wind Speed 13 mph    
Max Gust Speed -    
Visibility 6.1 miles    
Events Rain    
Averages and records for this station are not official NWS values.
T = Trace of Precipitation, MM = Missing Value Source: Averaged Metar Reports

Daily Weather History Graph

Daily Weather History Graph

Search for Another Location

Airport or City:

Trip Planner

Search our weather history database for the weather conditions in past years. The results will help you decide how hot, cold, wet, or windy it might be!

Date:

Astronomy

Oct. 11, 2013 Rise Set
Actual Time 8:19 AM CEST 7:34 PM CEST
Civil Twilight 7:51 AM CEST 8:03 PM CEST
Nautical Twilight 7:18 AM CEST 8:36 PM CEST
Astronomical Twilight 6:45 AM CEST 9:08 PM CEST
Moon 2:54 PM CEST (10/11) No Moon Set
Length of Visible Light 12h 12m
Length of Day
11h 15m
Waxing Crescent, 44% of the Moon is Illuminated
Oct 11
Waxing Crescent
Oct 12
First Quarter
Oct 19
Full
Oct 27
Last Quarter
Nov 3
New

Hourly Weather History & Observations

Time (CEST) Temp. Windchill Dew Point Humidity Pressure Visibility Wind Dir Wind Speed Gust Speed Precip Events Conditions
12:00 AM 50.0 °F - 46.4 °F 87% 30.09 in 6.2 mi North 5.8 mph - N/A   Mostly Cloudy
12:30 AM 50.0 °F - 46.4 °F 87% 30.09 in 6.2 mi NNE 3.5 mph - N/A   Mostly Cloudy
1:00 AM 50.0 °F - 46.4 °F 87% 30.09 in 6.2 mi NNE 3.5 mph - N/A   Mostly Cloudy
1:30 AM 50.0 °F - 44.6 °F 82% 30.09 in 6.2 mi Variable 2.3 mph - N/A   Mostly Cloudy
2:00 AM 50.0 °F - 44.6 °F 82% 30.09 in 6.2 mi NNW 3.5 mph - N/A   Mostly Cloudy
2:30 AM 50.0 °F - 44.6 °F 82% 30.09 in 6.2 mi NNW 2.3 mph - N/A   Mostly Cloudy
3:00 AM 48.2 °F - 46.4 °F 93% 30.09 in 6.2 mi WNW 2.3 mph - N/A   Mostly Cloudy
3:30 AM 48.2 °F - 46.4 °F 93% 30.06 in 6.2 mi WNW 3.5 mph - N/A   Mostly Cloudy
4:00 AM 48.2 °F - 46.4 °F 93% 30.06 in 6.2 mi WNW 3.5 mph - N/A   Mostly Cloudy
4:30 AM 48.2 °F - 46.4 °F 93% 30.06 in 6.2 mi West 3.5 mph - N/A   Mostly Cloudy
5:00 AM 48.2 °F - 44.6 °F 87% 30.04 in 6.2 mi Variable 2.3 mph - N/A   Mostly Cloudy
5:30 AM 48.2 °F - 46.4 °F 93% 30.04 in 6.2 mi WNW 3.5 mph - N/A   Mostly Cloudy
6:00 AM 48.2 °F - 46.4 °F 93% 30.04 in 6.2 mi WNW 1.2 mph - N/A   Mostly Cloudy
6:30 AM 48.2 °F - 44.6 °F 87% 30.04 in 6.2 mi Variable 1.2 mph - N/A   Mostly Cloudy
7:00 AM 48.2 °F - 44.6 °F 87% 30.04 in 6.2 mi SSW 1.2 mph - N/A   Mostly Cloudy
7:30 AM 46.4 °F - 44.6 °F 93% 30.04 in 6.2 mi SSW 1.2 mph - N/A   Mostly Cloudy
8:00 AM 46.4 °F - 42.8 °F 87% 30.04 in 6.2 mi Calm Calm - N/A   Mostly Cloudy
8:30 AM 44.6 °F - 42.8 °F 93% 30.04 in 6.2 mi Variable 1.2 mph - N/A   Scattered Clouds
9:00 AM 44.6 °F - 44.6 °F 100% 30.04 in 6.2 mi West 1.2 mph - N/A   Scattered Clouds
9:30 AM 46.4 °F - 44.6 °F 93% 30.04 in 6.2 mi Calm Calm - N/A   Scattered Clouds
10:00 AM 48.2 °F - 44.6 °F 87% 30.04 in 6.2 mi Calm Calm - N/A   Mostly Cloudy
10:30 AM 50.0 °F - 44.6 °F 82% 30.04 in 6.2 mi WSW 1.2 mph - N/A   Mostly Cloudy
11:00 AM 50.0 °F - 44.6 °F 82% 30.04 in 6.2 mi Variable 2.3 mph - N/A   Mostly Cloudy
11:30 AM 50.0 °F - 44.6 °F 82% 30.04 in 6.2 mi Variable 1.2 mph - N/A   Mostly Cloudy
12:00 PM 50.0 °F - 44.6 °F 82% 30.04 in 6.2 mi Variable 2.3 mph - N/A   Overcast
12:30 PM 50.0 °F - 44.6 °F 82% 30.04 in 6.2 mi WNW 3.5 mph - N/A   Overcast
1:00 PM 50.0 °F - 42.8 °F 76% 30.04 in 6.2 mi WNW 10.4 mph - N/A   Overcast
1:30 PM 50.0 °F - 44.6 °F 82% 30.04 in 6.2 mi WNW 9.2 mph - N/A   Overcast
2:00 PM 50.0 °F - 44.6 °F 82% 30.04 in 6.2 mi West 10.4 mph - N/A Rain Light Rain
2:30 PM 55.4 °F - 44.6 °F 67% 30.01 in 6.2 mi West 5.8 mph - N/A   Mostly Cloudy
3:00 PM 55.4 °F - 42.8 °F 63% 30.01 in 6.2 mi NW 10.4 mph - N/A   Mostly Cloudy
3:30 PM 55.4 °F - 42.8 °F 63% 30.01 in 6.2 mi WNW 6.9 mph - N/A   Mostly Cloudy
4:00 PM 50.0 °F - 44.6 °F 82% 30.01 in 5.6 mi NNW 12.7 mph - N/A Rain Light Rain
4:30 PM 50.0 °F - 44.6 °F 82% 30.01 in 6.2 mi NNW 8.1 mph - N/A   Mostly Cloudy
5:00 PM 50.0 °F - 44.6 °F 82% 30.01 in 6.2 mi WNW 5.8 mph - N/A   Mostly Cloudy
5:30 PM 50.0 °F - 46.4 °F 87% 30.04 in 4.3 mi NW 6.9 mph - N/A   Light Drizzle
6:00 PM 48.2 °F - 46.4 °F 93% 30.04 in 3.1 mi North 8.1 mph - N/A Rain Light Rain
6:30 PM 48.2 °F - 46.4 °F 93% 30.04 in 6.2 mi North 4.6 mph - N/A   Mostly Cloudy
7:00 PM 48.2 °F - 46.4 °F 93% 30.04 in 6.2 mi NE 6.9 mph - N/A   Mostly Cloudy
7:30 PM 48.2 °F - 44.6 °F 87% 30.06 in 6.2 mi North 5.8 mph - N/A   Mostly Cloudy
8:00 PM 46.4 °F 45.2 °F 42.8 °F 87% 30.06 in 6.2 mi North 3.5 mph - N/A   Mostly Cloudy
8:30 PM 46.4 °F - 42.8 °F 87% 30.06 in 6.2 mi North 1.2 mph - N/A   Mostly Cloudy
9:00 PM 44.6 °F - 41.0 °F 87% 30.06 in 6.2 mi Calm Calm - N/A   Scattered Clouds
9:30 PM 42.8 °F 40.1 °F 42.8 °F 100% 30.06 in 6.2 mi WSW 4.6 mph - N/A   Scattered Clouds
10:00 PM 42.8 °F - 41.0 °F 93% 30.06 in 6.2 mi Calm Calm - N/A   Mostly Cloudy
10:30 PM 42.8 °F - 41.0 °F 93% 30.06 in 6.2 mi Calm Calm - N/A   Mostly Cloudy
11:00 PM 42.8 °F - 42.8 °F 100% 30.09 in 6.2 mi Variable 1.2 mph - N/A   Mostly Cloudy
11:30 PM 42.8 °F - 41.0 °F 93% 30.09 in 6.2 mi SW 1.2 mph - N/A   Scattered Clouds